Location: Casco Volunteer Fire Department
(44.5576°N, 87.6146°W)
Time: 05:26:35
(UTC+00:00)

BlueWalker 3 - Pass Details

Date: 13 March 2026
Orbit: 449 x 457 km, 53.2° (Epoch: 15 April)

Event Time Altitude Azimuth Distance (km) Brightness Sun altitude
Exits shadow 11:06:56 - 308° (NW) 1,648 4.1 -11.4°
Reaches altitude 10° 11:07:03 10° 308° (NW) 1,602 4.1 -11.4°
Maximum altitude 11:10:38 65° 31° (NNE) 507 2.1 -10.7°
Drops below altitude 10° 11:14:12 10° 114° (ESE) 1,591 5.5 -10.1°
Sets 11:16:20 0° 117° (ESE) 2,461 6.5 -9.7°
